DW8343 Weather Reports


time (UTC)temp
F
wind
direction
speed
knots
gust
knots
rain 1hr
in
rain 24hr
in
rain mn
in
humidity
%
barometer
mb
20221207222645 49 45 0.0 1.7 0.01 0.02 0.02 93 1022.8
20221207222136 49 68 0.0 0.9 0.01 0.02 0.02 93 1022.4
20221207221625 49 90 0.9 0.9 0.01 0.02 0.02 93 1022.3
20221207221114 49 90 0.0 0.9 0.01 0.02 0.02 93 1022.5
20221207220604 49 90 0.0 0.9 0.00 0.01 0.01 92 1022.6
20221207220054 49 90 0.0 0.9 0.00 0.01 0.01 92 1022.7
20221207215544 49 45 0.9 1.7 0.01 0.01 0.01 92 1022.7
20221207215034 49 90 0.9 2.6 0.01 0.01 0.01 92 1022.3
20221207214755 49 90 0.0 2.6 0.01 0.01 0.01 92 1022.2
20221207214014 49 68 0.9 1.7 0.01 0.01 0.01 92 1022.2
20221207213504 49 90 0.0 1.7 0.01 0.01 0.01 91 1022.5
20221207212955 49 90 0.0 1.7 0.01 0.01 0.01 91 1022.0
20221207212443 49 90 0.0 1.7 0.01 0.01 0.01 91 1022.0
20221207212204 49 45 0.9 1.7 0.01 0.01 0.01 91 1022.2
20221207211424 49 90 0.9 1.7 0.01 0.01 0.01 91 1021.9
20221207210912 49 90 0.0 2.6 0.01 0.01 0.01 90 1022.3
20221207210404 49 45 0.9 2.6 0.01 0.01 0.01 90 1022.1
20221207205853 49 45 0.9 2.6 0.00 0.00 0.00 90 1022.3
20221207205343 49 90 0.9 1.7 0.00 0.00 0.00 90 1022.4
20221207205103 49 90 0.0 1.7 0.00 0.00 0.00 89 1022.5
20221207204322 50 90 0.0 1.7 0.00 0.00 0.00 89 1022.3
20221207203812 50 45 0.9 1.7 0.00 0.00 0.00 89 1022.2
20221207203301 50 45 0.9 0.9 0.00 0.00 0.00 88 1022.1
20221207202751 50 90 0.0 2.6 0.00 0.00 0.00 88 1022.4
20221207202248 50 45 0.0 2.6 0.00 0.00 0.00 88 1022.3
20221207201731 50 90 0.9 2.6 0.00 0.00 0.00 87 1022.2
20221207201221 50 45 0.9 1.7 0.00 0.00 0.00 87 1022.1
20221207200712 50 135 0.0 2.6 0.00 0.00 0.00 87 1022.7
20221207200200 50 135 0.0 2.6 0.00 0.00 0.00 87 1022.9
20221207195650 50 90 0.9 1.7 0.00 0.00 0.00 87 1022.5
20221207195140 51 45 0.9 2.6 0.00 0.00 0.00 87 1022.1
20221207194630 51 45 0.9 2.6 0.00 0.00 0.00 87 1022.3
20221207194120 50 225 0.9 2.6 0.00 0.00 0.00 87 1022.1
20221207193610 50 90 0.9 2.6 0.00 0.00 0.00 86 1021.9
20221207193100 50 90 0.9 2.6 0.00 0.00 0.00 86 1022.1
20221207192550 51 45 0.9 2.6 0.00 0.00 0.00 86 1021.9
20221207192040 51 90 0.9 2.6 0.00 0.00 0.00 85 1022.2
20221207191530 51 90 0.9 2.6 0.00 0.00 0.00 85 1022.6
20221207191251 51 135 0.0 2.6 0.00 0.00 0.00 85 1023.1
20221207190509 51 135 0.9 2.6 0.00 0.00 0.00 86 1022.8
20221207185959 51 68 0.9 3.5 0.00 0.00 0.00 86 1022.9
20221207185449 51 90 0.9 4.3 0.00 0.00 0.00 86 1022.8
20221207184938 51 68 0.0 4.3 0.00 0.00 0.00 87 1023.0
20221207184428 51 0 0.9 2.6 0.00 0.00 0.00 87 1023.3
20221207184149 51 0 0.0 2.6 0.00 0.00 0.00 88 1007.7
20221207183408 51 315 0.9 2.6 0.00 0.00 0.00 88 1023.5
20221207182858 51 225 0.9 2.6 0.00 0.00 0.00 88 1023.5
20221207182348 51 45 0.9 4.3 0.00 0.00 0.00 88 1023.4
20221207181838 51 180 0.9 4.3 0.00 0.00 0.00 88 1023.6
20221207181328 51 180 0.9 2.6 0.00 0.00 0.00 88 1023.5
20221207181049 51 135 0.9 1.7 0.00 0.00 0.00 88 1023.8
20221207180308 51 90 0.0 1.7 0.00 0.00 0.00 88 1023.1
20221207175759 51 45 0.9 1.7 0.00 0.00 0.00 89 1022.6
20221207175248 50 90 0.0 1.7 0.00 0.00 0.00 89 1022.8
20221207175008 50 135 0.9 2.6 0.00 0.00 0.00 89 1022.9
20221207174227 50 90 0.0 2.6 0.00 0.00 0.00 90 1022.9
20221207173717 50 158 0.9 2.6 0.00 0.00 0.00 90 1023.0
20221207173206 50 90 0.9 2.6 0.00 0.00 0.00 90 1022.9
20221207172656 49 135 0.9 2.6 0.00 0.00 0.00 90 1023.2
20221207172146 49 90 0.9 1.7 0.00 0.00 0.00 91 1023.2
20221207171636 49 90 0.9 1.7 0.00 0.00 0.00 91 1023.1
20221207171127 49 90 0.9 1.7 0.00 0.00 0.00 91 1023.4
20221207170616 49 90 0.0 2.6 0.00 0.00 0.00 91 1023.4
20221207170106 49 90 0.0 2.6 0.00 0.00 0.00 91 1023.2
20221207165557 48 90 0.9 2.6 0.00 0.00 0.00 92 1023.3
20221207165045 48 90 1.7 2.6 0.00 0.00 0.00 92 1023.1
20221207164535 48 68 0.9 2.6 0.00 0.00 0.00 92 1023.1
20221207164025 48 90 0.9 2.6 0.00 0.00 0.00 93 1023.3
20221207163516 48 158 0.0 1.7 0.00 0.00 0.00 93 1023.4
20221207163005 48 90 0.9 1.7 0.00 0.00 0.00 94 1023.7
20221207161945 48 90 0.0 2.6 0.00 0.00 0.00 94 1023.3
20221207161434 47 135 0.9 1.7 0.00 0.00 0.00 94 1023.2
20221207160925 47 68 0.9 1.7 0.00 0.00 0.00 95 1023.2
20221207160415 47 90 0.9 1.7 0.00 0.00 0.00 95 1023.5
20221207155905 47 90 0.9 0.9 0.00 0.00 0.00 95 1023.6
20221207155354 47 270 0.0 1.7 0.00 0.00 0.00 95 1023.5
20221207154844 46 113 0.0 2.6 0.00 0.00 0.00 95 1023.1
20221207154334 46 90 0.0 2.6 0.00 0.00 0.00 96 1023.0
20221207153823 46 90 0.0 2.6 0.00 0.00 0.00 96 1022.8
20221207153313 46 45 0.0 1.7 0.00 0.00 0.00 96 1022.9
20221207152803 46 68 0.9 1.7 0.00 0.00 0.00 96 1022.7
20221207152253 46 135 0.0 1.7 0.00 0.00 0.00 97 1023.1
20221207151743 46 90 0.0 1.7 0.00 0.00 0.00 97 1023.1
20221207151233 46 135 0.0 1.7 0.00 0.00 0.00 97 1023.1
20221207150728 45 90 0.0 1.7 0.00 0.00 0.00 97 1023.0
20221207150443 45 90 0.0 0.9 0.00 0.00 0.00 97 1022.7
20221207145152 45 90 0.9 0.9 0.00 0.00 0.00 97 1022.7
20221207144642 45 90 0.0 0.9 0.00 0.00 0.00 97 1022.8
20221207144402 45 90 0.0 0.9 0.00 0.00 0.00 97 1022.7
20221207143853 45 0 0.0 0.9 0.00 0.00 0.00 97 1022.6
20221207143113 45 45 0.0 2.6 0.00 0.00 0.00 98 1022.8
20221207142602 44 90 0.0 2.6 0.00 0.00 0.00 99 1022.1
20221207142322 44 90 0.9 1.7 0.00 0.00 0.00 99 1022.1
20221207141543 44 90 0.9 1.7 0.00 0.00 0.00 99 1022.5
20221207141031 44 90 0.9 1.7 0.00 0.00 0.00 99 1022.2
20221207140521 44 180 0.9 2.6 0.00 0.00 0.00 99 1022.1
20221207140010 44 180 0.9 2.6 0.00 0.00 0.00 99 1021.6
20221207135501 44 90 0.9 1.7 0.00 0.00 0.00 99 1021.5
20221207135222 44 90 0.0 0.9 0.00 0.00 0.00 99 1022.0
20221207134441 44 90 0.0 0.9 0.00 0.00 0.00 99 1022.3
20221207133931 44 90 0.0 0.9 0.00 0.00 0.00 99 1022.1
20221207133420 44 135 0.9 1.7 0.00 0.00 0.00 99 1021.9
20221207132910 44 90 0.9 1.7 0.00 0.00 0.00 99 1021.4
20221207132400 44 90 0.9 1.7 0.00 0.00 0.00 99 1021.3
20221207131849 44 90 0.0 0.0 0.00 0.01 0.00 99 1021.7
20221207131611 44 90 0.0 0.9 0.00 0.01 0.00 99 1021.6
20221207130830 44 90 0.0 1.7 0.00 0.01 0.00 99 1022.1
20221207130319 44 90 0.0 1.7 0.00 0.01 0.00 99 1021.4
20221207125809 43 90 0.0 0.9 0.00 0.01 0.00 99 1021.0
20221207125530 43 113 0.0 0.9 0.00 0.01 0.00 99 1021.4
20221207124749 43 90 0.0 0.9 0.00 0.01 0.00 99 1021.2
20221207124509 43 135 0.0 0.9 0.00 0.01 0.00 99 1021.3
20221207123728 43 90 0.0 1.7 0.00 0.01 0.00 99 1021.0
20221207123218 43 90 0.9 2.6 0.00 0.01 0.00 99 1021.0
20221207122708 43 90 0.0 2.6 0.00 0.01 0.00 99 1020.8
20221207122158 43 90 0.0 1.7 0.00 0.01 0.00 99 1020.7
20221207121648 43 90 0.0 2.6 0.00 0.01 0.00 99 1020.6
20221207121138 43 90 0.9 2.6 0.00 0.01 0.00 99 1020.8
20221207120628 43 90 0.9 2.6 0.00 0.01 0.00 99 1020.7
20221207120118 43 90 0.9 2.6 0.00 0.01 0.00 99 1020.2
20221207115607 43 45 1.7 2.6 0.00 0.01 0.00 99 1020.2
20221207115328 43 68 0.0 1.7 0.00 0.01 0.00 100 1020.4
20221207114547 43 45 0.9 1.7 0.00 0.01 0.00 100 1020.5
20221207114037 43 90 0.9 1.7 0.00 0.01 0.00 100 1020.3
20221207113526 43 90 0.9 1.7 0.00 0.01 0.00 100 1020.3
20221207113018 43 135 0.0 2.6 0.00 0.01 0.00 100 1020.4
20221207112507 43 90 0.9 2.6 0.00 0.01 0.00 99 1020.3
20221207112228 43 90 0.0 1.7 0.00 0.01 0.00 99 1020.1
20221207111717 43 45 0.9 1.7 0.00 0.01 0.00 99 1020.0
20221207110938 43 90 0.0 1.7 0.00 0.01 0.00 99 1020.2
20221207110426 43 90 0.0 2.6 0.00 0.01 0.00 99 1020.3
20221207105916 43 90 0.9 2.6 0.00 0.01 0.00 100 1019.9
20221207104856 43 68 0.9 1.7 0.00 0.01 0.00 100 1020.3
20221207104346 43 45 0.9 2.6 0.00 0.01 0.00 100 1020.1
20221207103837 43 135 0.9 2.6 0.00 0.01 0.00 100 1020.1
20221207103326 43 45 0.9 2.6 0.00 0.01 0.00 100 1020.2
20221207102815 43 45 0.9 2.6 0.00 0.01 0.00 100 1020.1
20221207102536 43 90 0.9 2.6 0.00 0.01 0.00 100 1019.8
20221207101755 43 90 0.9 2.6 0.00 0.01 0.00 100 1020.2
20221207101245 43 90 0.9 2.6 0.00 0.01 0.00 100 1020.0
20221207100224 43 68 0.9 3.5 0.00 0.01 0.00 100 1020.1
20221207095714 43 90 0.9 3.5 0.00 0.01 0.00 100 1020.5
20221207095435 43 315 0.9 2.6 0.00 0.01 0.00 100 1020.6
20221207094939 42 45 0.9 2.6 0.00 0.01 0.00 100 1020.3
20221207094144 42 45 0.9 2.6 0.00 0.01 0.00 100 1020.1
20221207093634 42 90 0.9 3.5 0.00 0.01 0.00 100 1020.1
20221207093124 42 45 0.9 4.3 0.00 0.01 0.00 100 1020.0
20221207092614 42 180 1.7 4.3 0.00 0.01 0.00 100 1020.0
20221207092104 42 90 0.0 2.6 0.00 0.01 0.00 100 1020.1
20221207091555 42 68 0.9 2.6 0.00 0.01 0.00 100 1019.7
20221207091043 42 135 0.9 4.3 0.00 0.01 0.00 100 1020.0
20221207090533 42 158 0.9 4.3 0.00 0.01 0.00 100 1019.7
20221207090023 42 225 0.9 3.5 0.00 0.01 0.00 100 1019.8
20221207085513 42 90 2.6 3.5 0.00 0.01 0.00 100 1020.0
20221207085003 42 90 0.9 2.6 0.00 0.01 0.00 100 1019.7
20221207084452 42 45 0.9 3.5 0.00 0.01 0.00 100 1019.7
20221207083942 42 90 0.0 3.5 0.00 0.01 0.00 100 1019.7
20221207083703 42 113 0.9 2.6 0.00 0.01 0.00 100 1019.9
20221207083154 42 90 0.0 4.3 0.00 0.01 0.00 100 1019.6
20221207082412 42 90 2.6 4.3 0.00 0.01 0.00 100 1019.5
20221207081903 42 135 0.9 2.6 0.00 0.01 0.00 100 1019.6
20221207081351 42 45 0.0 2.6 0.00 0.01 0.00 100 1019.7
20221207081113 42 45 0.0 1.7 0.00 0.01 0.00 100 1019.5
20221207075822 42 90 0.0 3.5 0.00 0.01 0.00 100 1019.3
20221207075311 42 90 0.9 2.6 0.00 0.01 0.00 100 1019.4
20221207074802 42 68 0.9 2.6 0.00 0.01 0.00 100 1019.2
20221207074251 42 90 0.9 2.6 0.00 0.01 0.00 100 1019.5
20221207073502 42 90 0.0 0.9 0.00 0.01 0.00 99 1019.7
20221207072720 42 90 0.0 0.9 0.00 0.01 0.00 99 1019.7
20221207072211 42 90 0.0 0.9 0.00 0.01 0.00 99 1019.4
20221207071701 42 90 0.0 0.9 0.00 0.01 0.00 99 1019.5
20221207071150 41 90 0.0 0.9 0.00 0.01 0.00 99 1019.6
20221207070640 41 135 0.9 1.7 0.00 0.01 0.00 99 1019.3
20221207070130 41 68 0.9 1.7 0.00 0.01 0.00 99 1019.2
20221207065620 41 90 0.9 1.7 0.00 0.01 0.00 99 1019.4
20221207065110 41 90 0.9 1.7 0.00 0.01 0.00 99 1019.5
20221207064559 41 45 0.9 1.7 0.00 0.01 0.00 99 1019.5
20221207064049 41 90 0.0 1.7 0.00 0.01 0.00 99 1019.4
20221207063539 41 90 0.0 1.7 0.00 0.01 0.00 100 1019.4
20221207063029 41 90 0.0 1.7 0.00 0.01 0.00 100 1019.6
20221207062520 41 90 0.9 0.9 0.00 0.01 0.00 100 1019.7
20221207062009 41 45 0.0 0.9 0.00 0.01 0.00 100 1019.7
20221207061729 41 90 0.0 1.7 0.00 0.01 0.00 100 1019.9
20221207061220 41 90 0.9 1.7 0.00 0.01 0.00 100 1019.5
20221207060438 41 90 0.0 2.6 0.00 0.01 0.00 99 1019.5
20221207055928 41 90 0.9 2.6 0.00 0.01 0.01 99 1019.4
20221207055418 41 90 0.0 0.9 0.00 0.01 0.01 99 1019.6
20221207054908 41 90 0.0 0.9 0.00 0.01 0.01 99 1019.6
20221207054357 41 90 0.0 1.7 0.00 0.01 0.01 99 1019.7
20221207053847 41 135 0.0 1.7 0.00 0.01 0.01 99 1019.7
20221207053608 41 90 0.9 2.6 0.00 0.01 0.01 99 1019.5
20221207052827 41 90 0.9 2.6 0.00 0.01 0.01 99 1019.5
20221207052316 41 90 0.0 0.9 0.00 0.01 0.01 99 1019.4
20221207051806 41 90 0.0 1.7 0.00 0.01 0.01 98 1019.5
20221207051258 41 90 0.9 1.7 0.00 0.01 0.01 98 1019.5
20221207050747 41 90 0.0 0.0 0.00 0.01 0.01 98 1019.5
20221207050236 41 90 0.0 0.9 0.00 0.01 0.01 98 1019.4
20221207045726 41 90 0.0 2.6 0.00 0.01 0.01 98 1019.3
20221207045447 41 90 0.0 2.6 0.00 0.01 0.01 98 1019.2
20221207044706 41 90 0.9 1.7 0.00 0.01 0.01 98 1019.1
20221207044155 41 45 0.9 1.7 0.00 0.01 0.01 98 1019.2
20221207043645 41 90 0.9 1.7 0.00 0.01 0.01 98 1019.1
20221207043135 41 90 0.0 0.9 0.00 0.01 0.01 98 1019.1
20221207042625 41 90 0.9 0.9 0.00 0.01 0.01 98 1018.9
20221207042115 41 90 0.0 0.9 0.00 0.01 0.01 98 1018.9
20221207041605 41 135 0.0 0.9 0.00 0.01 0.01 98 1018.9
20221207041055 41 90 0.0 0.9 0.00 0.01 0.01 98 1018.8
20221207040545 41 45 0.9 0.9 0.00 0.01 0.01 98 1018.5
20221207040306 41 45 0.9 1.7 0.00 0.01 0.01 98 1018.6
20221207035525 41 90 0.9 2.6 0.00 0.01 0.01 98 1018.6
20221207035014 41 90 0.9 2.6 0.00 0.01 0.01 98 1018.5
20221207034505 41 45 0.9 1.7 0.00 0.01 0.01 98 1018.5
20221207033955 41 90 0.0 0.9 0.00 0.01 0.01 98 1018.6
20221207033444 41 90 0.9 0.9 0.00 0.01 0.01 98 1018.6
20221207033205 41 90 0.0 0.9 0.00 0.01 0.01 98 1018.5
20221207032424 41 180 0.9 0.9 0.00 0.01 0.01 98 1018.6
20221207032145 41 90 0.0 0.9 0.00 0.01 0.01 98 1018.4
20221207031404 41 90 0.0 0.9 0.00 0.01 0.01 98 1018.5
20221207030854 41 90 0.9 0.9 0.00 0.01 0.01 98 1018.6
20221207030343 41 90 0.0 0.9 0.00 0.01 0.01 97 1018.5
20221207025833 41 90 0.0 0.9 0.00 0.01 0.01 97 1018.3
20221207025044 42 270 0.9 0.9 0.00 0.01 0.01 97 1018.2
20221207024302 42 90 0.0 0.9 0.00 0.01 0.01 97 1018.2
20221207023752 42 113 0.0 0.9 0.00 0.01 0.01 97 1018.3
20221207023242 42 90 0.0 0.9 0.00 0.01 0.01 97 1018.4
20221207022732 42 90 0.0 2.6 0.00 0.01 0.01 97 1018.3
20221207022223 42 90 0.9 2.6 0.00 0.01 0.01 97 1018.2
20221207021712 42 90 0.9 0.9 0.00 0.01 0.01 97 1018.2
20221207021202 42 90 0.0 1.7 0.00 0.01 0.01 97 1018.0
20221207020652 42 90 0.0 1.7 0.00 0.01 0.01 97 1017.8
20221207020141 42 45 0.9 1.7 0.00 0.01 0.01 97 1017.8
20221207015631 42 45 0.0 0.9 0.00 0.01 0.01 97 1018.0
20221207015121 42 90 0.0 0.9 0.00 0.01 0.01 97 1018.0
20221207014841 42 315 0.0 1.7 0.00 0.01 0.01 97 1018.0
20221207014101 42 90 0.0 1.7 0.00 0.01 0.01 97 1017.7
20221207013552 42 0 0.9 1.7 0.00 0.01 0.01 97 1017.6
20221207013041 42 225 0.9 1.7 0.00 0.01 0.01 97 1017.5
20221207012531 42 90 0.0 1.7 0.00 0.01 0.01 97 1017.5
20221207012021 42 270 0.0 1.7 0.00 0.01 0.01 97 1017.7
20221207011511 42 90 0.0 1.7 0.00 0.01 0.01 97 1017.5
20221207011000 42 90 0.0 0.9 0.00 0.01 0.01 97 1017.4
20221207010722 42 90 0.0 0.9 0.00 0.01 0.01 97 1017.4
20221207005940 42 90 0.9 0.9 0.00 0.01 0.01 97 1017.3
20221207005429 42 90 0.0 0.9 0.00 0.01 0.01 97 1017.3
20221207005150 42 135 0.0 0.9 0.00 0.01 0.01 97 1017.3
20221207004410 42 135 0.0 0.9 0.00 0.01 0.01 97 1017.5
20221207003901 42 90 0.0 0.9 0.00 0.01 0.01 97 1017.2
20221207003349 42 90 0.0 0.0 0.00 0.01 0.01 97 1017.3
20221207002839 42 90 0.0 0.0 0.00 0.01 0.01 97 1017.1
20221207002329 42 90 0.0 1.7 0.00 0.01 0.01 97 1017.0
20221207001819 42 90 0.0 1.7 0.00 0.01 0.01 97 1017.2
20221207001309 42 68 0.0 0.9 0.00 0.01 0.01 97 1017.0
20221207000758 42 90 0.0 0.9 0.00 0.01 0.01 97 1017.0
20221207000248 42 90 0.9 0.9 0.00 0.01 0.01 97 1016.8
20221206235739 42 90 0.0 0.0 0.00 0.01 0.01 97 1016.5
20221206235229 42 90 0.0 0.9 0.00 0.01 0.01 97 1016.7
20221206234718 42 90 0.0 0.9 0.00 0.01 0.01 97 1016.6
20221206234209 42 90 0.9 0.9 0.00 0.01 0.01 97 1016.5
20221206233658 42 90 0.0 0.9 0.00 0.01 0.01 97 1016.4
20221206233147 42 90 0.0 1.7 0.00 0.01 0.01 98 1016.3
20221206232638 42 225 0.0 1.7 0.00 0.01 0.01 98 1016.4
20221206232128 42 90 0.0 0.9 0.00 0.01 0.01 98 1016.4
20221206231617 42 45 0.0 0.0 0.00 0.01 0.01 98 1016.4
20221206231107 42 90 0.0 0.9 0.00 0.01 0.01 98 1016.4
20221206230556 42 45 0.0 0.9 0.00 0.01 0.01 98 1016.3
20221206230047 42 90 0.0 0.9 0.00 0.01 0.01 98 1016.5
20221206225537 43 90 0.9 1.7 0.00 0.01 0.01 98 1016.5
20221206225027 43 90 0.0 1.7 0.00 0.01 0.01 98 1016.4
20221206224517 43 90 0.9 1.7 0.00 0.01 0.01 98 1016.3
20221206224237 43 45 0.9 0.9 0.00 0.01 0.01 98 1016.5
20221206223456 43 135 0.0 0.9 0.00 0.01 0.01 98 1016.4